DW6794 Weather Reports


Display with metric or nautical units.
time (UTC)temp
F
wind
direction
speed
MPH
gust
MPH
rain 1hr
in
rain 24hr
in
rain mn
in
humidity
%
barometer
mb
20141101122352 33 217 0.0 0.0 0.00 0.19 0.03 88 1012.7
20141101120352 33 244 0.0 0.0 0.01 0.19 0.03 88 1012.6
20141101113352 33 241 0.0 0.0 0.01 0.19 0.03 88 1012.1
20141101112352 33 240 0.0 0.0 0.01 0.19 0.03 88 1011.8
20141101111353 33 233 0.0 0.0 0.01 0.19 0.03 88 1011.7
20141101105352 33 236 0.0 0.0 0.01 0.18 0.02 88 1011.4
20141101104353 33 236 0.0 0.0 0.01 0.18 0.02 88 1011.2
20141101103353 33 241 0.0 0.0 0.01 0.18 0.02 88 1011.1
20141101102353 33 247 0.0 0.0 0.01 0.18 0.02 88 1011.0
20141101101352 33 231 0.0 0.0 0.01 0.18 0.02 88 1010.9
20141101100354 33 229 0.0 0.0 0.01 0.18 0.02 88 1010.6
20141101095353 33 238 0.0 0.0 0.00 0.17 0.01 88 1010.5
20141101094354 33 238 0.0 0.0 0.00 0.17 0.01 88 1010.5
20141101093352 33 250 0.0 0.0 0.00 0.17 0.01 88 1010.4
20141101092353 33 252 0.0 0.0 0.00 0.17 0.01 88 1010.3
20141101091353 33 246 0.0 0.0 0.00 0.17 0.01 88 1010.2
20141101090353 33 236 0.0 3.0 0.00 0.17 0.01 88 1010.1
20141101085353 33 236 3.0 9.0 0.00 0.17 0.01 88 1010.2
20141101084353 33 219 0.0 3.0 0.00 0.17 0.01 88 1010.2
20141101082352 33 232 0.0 0.0 0.00 0.17 0.01 87 1010.1
20141101081353 33 214 0.0 0.0 0.00 0.17 0.01 87 1010.1
20141101080354 33 234 0.0 0.0 0.00 0.17 0.01 87 1010.0
20141101074353 33 232 0.0 0.0 0.01 0.17 0.01 87 1010.4
20141101073354 33 242 0.0 0.0 0.01 0.17 0.01 87 1010.1
20141101072353 33 236 0.0 0.0 0.01 0.17 0.01 87 1010.0
20141101071353 33 236 0.0 0.0 0.01 0.17 0.01 87 1010.3
20141101070353 33 221 0.0 5.0 0.01 0.17 0.01 87 1010.4
20141101065353 33 247 2.0 5.0 0.01 0.17 0.01 87 1010.5
20141101064353 33 254 2.0 5.0 0.00 0.16 0.00 87 1010.5
20141101063354 33 240 1.0 6.0 0.00 0.16 0.00 87 1010.5
20141101062353 33 240 2.0 6.0 0.00 0.16 0.00 87 1010.5
20141101061353 33 219 1.0 5.0 0.00 0.16 0.00 87 1010.6
20141101060355 33 220 2.0 3.0 0.00 0.16 0.00 87 1010.5
20141101055354 33 248 1.0 5.0 0.00 0.16 0.00 87 1010.6
20141101054353 33 238 1.0 3.0 0.00 0.16 0.00 86 1010.6
20141101052354 33 246 2.0 9.0 0.00 0.16 0.00 86 1010.9
20141101051353 33 205 2.0 6.0 0.00 0.16 0.00 86 1010.9
20141101050353 34 209 3.0 7.0 0.00 0.16 0.00 86 1010.9
20141101045353 34 236 2.0 7.0 0.00 0.16 0.00 86 1011.0
20141101043354 34 245 2.0 6.0 0.00 0.16 0.00 86 1011.4
20141101042354 34 205 4.0 7.0 0.00 0.16 0.00 86 1011.5
20141101041354 34 242 3.0 8.0 0.01 0.16 0.00 86 1011.6
20141101040354 35 230 3.0 9.0 0.01 0.16 0.00 86 1011.7
20141101033355 36 267 7.0 15.0 0.02 0.16 0.16 85 1011.8
20141101032354 37 256 7.0 14.0 0.02 0.16 0.16 85 1011.7
20141101031354 38 271 9.0 15.0 0.01 0.15 0.15 85 1011.5
20141101030354 39 268 10.0 15.0 0.01 0.15 0.15 84 1011.4
20141101025354 39 238 9.0 14.0 0.00 0.14 0.14 84 1011.4
20141101024355 39 248 8.0 14.0 0.00 0.14 0.14 83 1011.3
20141101023355 40 234 8.0 13.0 0.00 0.14 0.14 84 1011.3
20141101022354 40 255 7.0 12.0 0.00 0.14 0.14 84 1011.1
20141101021354 41 253 6.0 13.0 0.01 0.14 0.14 84 1010.9
20141101020355 41 245 5.0 15.0 0.01 0.14 0.14 84 1010.8
20141101015354 41 257 5.0 10.0 0.01 0.14 0.14 84 1010.4
20141101014354 42 291 3.0 12.0 0.01 0.14 0.14 84 1009.9
20141101013354 43 335 2.0 10.0 0.01 0.14 0.14 84 1009.7
20141101012354 44 275 6.0 12.0 0.02 0.14 0.14 85 1009.3
20141101011354 45 265 0.0 9.0 0.02 0.13 0.13 85 1009.1
20141101005354 45 250 1.0 3.0 0.05 0.13 0.13 85 1009.2
20141101004355 45 252 3.0 6.0 0.05 0.13 0.13 85 1009.3
20141101003354 45 254 4.0 9.0 0.06 0.13 0.13 85 1009.3
20141101002354 45 261 3.0 8.0 0.05 0.12 0.12 85 1009.4
20141101001355 45 248 4.0 6.0 0.04 0.11 0.11 85 1009.3
20141101000354 46 260 6.0 12.0 0.03 0.09 0.09 85 1009.4
20141031235356 46 233 3.0 9.0 0.02 0.08 0.08 85 1009.4
20141031234355 46 247 5.0 10.0 0.03 0.08 0.08 85 1009.5
20141031233355 46 252 4.0 8.0 0.03 0.07 0.07 84 1009.6
20141031232355 46 219 2.0 5.0 0.03 0.07 0.07 84 1009.6
20141031230355 46 230 5.0 9.0 0.04 0.06 0.06 83 1009.6
20141031225354 46 252 2.0 7.0 0.04 0.06 0.06 83 1009.6
20141031224355 46 242 4.0 6.0 0.03 0.05 0.05 82 1009.6
20141031222355 46 206 4.0 7.0 0.03 0.04 0.04 81 1009.5
20141031215355 47 254 0.0 0.0 0.02 0.02 0.02 78 1009.5
20141031214355 48 254 0.0 3.0 0.02 0.02 0.02 78 1009.5
20141031213355 48 223 0.0 3.0 0.01 0.01 0.01 77 1009.5
20141031211355 49 207 0.0 5.0 0.01 0.01 0.01 77 1009.3
20141031210355 49 203 0.0 2.0 0.00 0.00 0.00 76 1009.2
20141031205355 49 237 1.0 3.0 0.00 0.00 0.00 76 1009.1
20141031204355 49 237 0.0 2.0 0.00 0.00 0.00 76 1009.1
20141031203355 49 239 1.0 3.0 0.00 0.00 0.00 75 1009.1
20141031202355 49 238 0.0 2.0 0.00 0.00 0.00 75 1009.1
20141031201355 49 240 0.0 5.0 0.00 0.00 0.00 75 1009.2
20141031195355 49 246 2.0 7.0 0.00 0.00 0.00 75 1009.2
20141031194355 49 248 0.0 6.0 0.00 0.00 0.00 75 1009.2
20141031193355 49 231 3.0 6.0 0.00 0.00 0.00 75 1009.3
20141031192356 49 265 0.0 0.0 0.00 0.00 0.00 75 1009.4
20141031190355 50 265 0.0 3.0 0.00 0.00 0.00 75 1009.7
20141031185356 50 252 1.0 5.0 0.00 0.00 0.00 74 1009.7
20141031182356 51 274 0.0 3.0 0.00 0.00 0.00 76 1010.0
20141031181357 51 273 0.0 5.0 0.00 0.00 0.00 76 1010.0
20141031180356 52 270 0.0 6.0 0.00 0.00 0.00 77 1010.2
20141031175356 51 355 1.0 3.0 0.00 0.00 0.00 77 1010.2
20141031174356 51 314 1.0 5.0 0.00 0.00 0.00 77 1010.2
20141031173356 51 279 0.0 8.0 0.00 0.00 0.00 77 1010.4
20141031172356 51 267 1.0 6.0 0.00 0.00 0.00 78 1010.6
20141031171355 50 267 1.0 5.0 0.00 0.00 0.00 77 1010.7
20141031170355 50 267 2.0 6.0 0.00 0.00 0.00 78 1010.8
20141031165356 50 266 0.0 5.0 0.00 0.00 0.00 80 1010.8
20141031164356 50 266 0.0 5.0 0.00 0.00 0.00 80 1010.9
20141031162356 51 255 0.0 7.0 0.00 0.00 0.00 81 1011.2
20141031161356 51 285 0.0 6.0 0.00 0.00 0.00 82 1011.3
20141031160356 50 261 2.0 6.0 0.00 0.00 0.00 82 1011.6
20141031155356 49 262 2.0 5.0 0.00 0.00 0.00 83 1011.8
20141031154356 49 262 1.0 6.0 0.00 0.00 0.00 84 1011.9
20141031153356 47 236 3.0 6.0 0.00 0.00 0.00 84 1012.0
20141031152356 46 9 0.0 3.0 0.00 0.00 0.00 84 1012.1
20141031151357 46 9 0.0 3.0 0.00 0.00 0.00 84 1012.3
20141031150356 46 9 1.0 3.0 0.00 0.00 0.00 85 1012.4
20141031144357 42 9 0.0 0.0 0.00 0.00 0.00 86 1012.6
20141031143357 42 9 0.0 0.0 0.00 0.00 0.00 86 1012.8
20141031142357 41 9 0.0 0.0 0.00 0.00 0.00 86 1012.8
20141031141357 40 9 0.0 0.0 0.00 0.00 0.00 86 1012.9
20141031135357 38 350 0.0 0.0 0.00 0.00 0.00 86 1013.0
20141031133357 36 350 0.0 0.0 0.00 0.00 0.00 85 1013.2
20141031132356 35 350 0.0 0.0 0.00 0.00 0.00 85 1013.3
20141031131357 35 350 0.0 0.0 0.00 0.00 0.00 85 1013.4
20141031124356 33 350 0.0 0.0 0.00 0.00 0.00 84 1013.4